Regional Weather Roundup
Issued by NWS Portland, ME

Current Version | Previous Version | Text Only | Print | Product List | Glossary Off
Versions: 1 2 3 4 5 6 7 8 9 10 11 12 13 14 15 16 17 18 19 20 21 22 23 24 25 26 27 28 29 30 31 32 33 34 35 36 37 38 39 40 41 42 43 44 45 46 47 48 49 50
980 ASUS41 KGYX 260110 RWRGYX WEATHER ROUNDUP FOR MAINE AND NEW HAMPSHIRE NATIONAL WEATHER SERVICE GRAY ME 900 PM EDT TUE APR 25 2017 MEZ002-005-006-010-012-015-018-020-021-024-026-027-029-260200- MAINE CITY SKY/WX TMP DP RH WIND PRES REMARKS PORTLAND LGT RAIN 43 40 89 NE12 30.27F SANFORD LGT RAIN 42 41 96 NE16 30.22F BAR HARBOR LGT RAIN 46 33 60 E7 30.32F WISCASSET CLOUDY 46 40 79 E5 30.29S ROCKLAND LGT RAIN 44 39 82 E20 30.28F FRYEBURG LGT RAIN 43 43 100 E6 30.27F LEWISTONAUBURN LGT RAIN 43 43 100 N3 30.28S AUGUSTA CLOUDY 46 34 62 NE6 30.28F WATERVILLE LGT RAIN 45 36 70 VRB3 30.26F BANGOR CLOUDY 49 31 49 SE10 30.31F GREENVILLE N/A 41 40 96 VRB5 30.25F MILLINOCKET LGT RAIN 45 45 100 E3 30.32F HOULTON LGT RAIN 45 41 86 CALM 30.32R PRESQUE ISLE LGT RAIN 48 35 60 S8 30.32S FRENCHVILLE CLOUDY 46 26 45 SE10 30.27F CARIBOU CLOUDY 49 32 52 S7 30.30S $$ NHZ002-005-008-009-011-012-014-260200- NEW HAMPSHIRE CITY SKY/WX TMP DP RH WIND PRES REMARKS PORTSMOUTH LGT RAIN 43 42 95 NE12 30.18F FOG ROCHESTER LGT RAIN 42 40 92 NE10 30.20F FOG NASHUA LGT RAIN 45 44 97 NE3 30.16F FOG MANCHESTER LGT RAIN 45 41 86 NE9 30.15F CONCORD LGT RAIN 45 42 89 N7 30.17F PLYMOUTH LGT RAIN 45 43 94 CALM 30.21F BERLIN LGT RAIN 44 40 85 S6 30.22S WHITEFIELD CLOUDY 49 40 71 VRB5 30.17S JAFFREY LGT RAIN 44 44 100 VRB5 30.13F FOG KEENE LGT RAIN 47 43 86 N9 30.12F LEBANON CLOUDY 49 44 83 VRB5 30.15F MT WASHINGTON LGT RAIN 34 34 100 SE61G67 N/A VSB 1/16WCI 16 $$ VTZ005-007-008-260200- VERMONT CITY SKY/WX TMP DP RH WIND PRES REMARKS ST JOHNSBURY N/A 48 46 93 MISG 30.15R MONTPELIER CLOUDY 47 45 93 S7 30.19S BURLINGTON CLOUDY 52 46 80 CALM 30.10F $$ MAZ007-012-024-CTZ003-RIZ002-NYZ038-NYZ072-260200- SOUTHERN NEW ENGLAND AND NY CITY SKY/WX TMP DP RH WIND PRES REMARKS BOSTON LGT RAIN 47 47 100 NE14 30.13F FOG WORCESTER LGT RAIN 43 41 93 NE12G18 30.09F FOG NANTUCKET CLOUDY 51 49 92 E22G30 30.05S FOG PROVIDENCE RAIN 50 50 100 N7 30.08R FOG HARTFORD DRIZZLE 48 47 96 N12 30.06F ALBANY LGT RAIN 52 46 80 NE6 30.05S NEW YORK CITY LGT RAIN 52 50 93 NE20 29.90R FOG $$ ANZ081-ANZ082-ANZ150-NHZ014-MEZ023>029-260200- COASTAL MARINE OBSERVATIONS STATION/POSITION TIME TEMP WIND PRES WAVE AIR SEA DIR/SP/G HT/PER (UTC) (F) (DEG/KT/KT) (MB) (FT/S) MOUNT DESERT ROC 0000 42 1026.3F MATINICUS ROCK 0000 42 90/ 25/ 27 1024.3F ISLE OF SHOALS 0000 43 30/ 24/ 25 1021.9F JEFFREYS LEDGE 0006 44 N/A 6/ 6 CASHES LEDGE BUO 2350 43 43 1023.0 5/ 5 GEORGES BANK BUO 2350 50 41 1022.1 4/11 $$ .............KEY.............. WCI - WIND CHILL TC - TEMPERATURE IN CELSIUS VSB - VISIBILITY IN MILES HX - HEAT INDEX FAIR- INDICATES FEW OR NO CLOUDS BELOW 12,000 FT, WITH NO SIGNIFICANT WEATHER AND/OR OBSTRUCTIONS TO VISIBILITY.

USA.gov is the U.S. government's official web portal to all federal, state and local government web resources and services.